Home   Weather   Neuburg an der Donau   Past weeks

Flag for Germany Past Weather in Neuburg an der Donau, Bavaria, Germany — Yesterday and Last 2 Weeks

Now
28 °F

Ice fog.


Feels Like: 28 °F
Forecast: 21 / 33 °F
Wind: 1 mph from North

Location: Neuburg / Donau

Current Time: Dec 6, 2016 at 1:14:20 pm

Latest Report: Dec 6, 2016 at 12:20 pm


Visibility: 0 mi

Pressure: 30.45 "Hg

Humidity: 100%

Dew Point: 28 °F

Location of Neuburg an der DonauLocation

Past Weather in Neuburg an der Donau — Graph

°F

Neuburg an der Donau Temperature Yesterday

Maximum temperature yesterday: 28 °F (at 12:49 pm)
Minimum temperature yesterday: 16 °F (at 1:20 am)
Average temperature yesterday: 26 °F

High & Low Weather Summary for the Past Weeks

 TemperatureHumidityPressure
High54 °F (Nov 22, 2:20 pm)100% (Nov 22, 5:20 am)30.51 "Hg (Nov 22, 5:20 am)
Low16 °F (Nov 30, 5:20 am)45% (Dec 1, 1:20 pm)29.68 "Hg (Nov 21, 12:20 pm)
Average35 °F88%30.18 "Hg
* Reported Nov 21 11:20 am — Dec 6 11:20 am, Neuburg an der Donau, Weather by CustomWeather, © 2016

Note: Actual official high and low records may vary slightly from our data, if they occured in-between our weather recording intervals... More about our weather records

Advertising

Neuburg an der Donau Weather History for the Previous 24 Hours

Scroll right to see more
 ConditionsComfort  
Time TempWeatherWind HumidityBarometerVisibility
11:20 am
Tue, Dec 6
28 °FIce fog.1 mph100%30.45 "Hg0 mi
10:20 am28 °FIce fog.1 mph93%30.45 "Hg0 mi
9:20 am28 °FIce fog.No wind100%30.45 "Hg0 mi
8:20 am28 °FIce fog.3 mph93%30.42 "Hg0 mi
7:20 am28 °FIce fog.3 mph100%30.39 "Hg0 mi
6:20 am28 °FIce fog.3 mph100%30.39 "Hg0 mi
5:20 am28 °FIce fog.3 mph100%30.39 "Hg0 mi
4:20 am28 °FIce fog.5 mph100%30.39 "Hg0 mi
3:20 am28 °FIce fog.2 mph100%30.39 "Hg0 mi
2:20 am28 °FIce fog.2 mph100%30.39 "Hg1 mi
1:20 am28 °FIce fog.3 mph100%30.39 "Hg1 mi
12:20 am28 °FIce fog.5 mph100%30.36 "Hg1 mi
11:20 pm
Mon, Dec 5
28 °FIce fog.3 mph100%30.36 "Hg1 mi
10:20 pm28 °FIce fog.5 mph100%30.36 "Hg1 mi
9:20 pm28 °FIce fog.6 mph100%30.36 "Hg2 mi
8:20 pm28 °FIce fog.5 mph100%30.36 "Hg2 mi
7:20 pm28 °FIce fog.2 mph100%30.36 "Hg2 mi
6:20 pm28 °FIce fog.2 mph93%30.36 "Hg2 mi
5:20 pm28 °FIce fog.3 mph93%30.36 "Hg2 mi
4:45 pm28 °FIce fog.3 mph93%30.36 "Hg2 mi
4:20 pm28 °FIce fog.2 mph93%30.36 "Hg2 mi
3:20 pm28 °FIce fog.3 mph93%30.33 "Hg2 mi
2:20 pm28 °FIce fog.3 mph93%30.33 "Hg3 mi
1:50 pm28 °FIce fog.5 mph93%30.36 "Hg2 mi
1:20 pm28 °FIce fog.2 mph93%30.36 "Hg2 mi
Weather by CustomWeather, © 2016

See weather overviewHow to use our weather pages